Location: Carrières
(48.9495°N, 2.0407°E)
Time: 18:17:24
(UTC+00:00)

SR - Pass Details

Date: 22 April 2024
Orbit: 579 x 860 km, 66.7° (Epoch: 22 May)

Event Time Altitude Azimuth Distance (km) Brightness Sun altitude
Exits shadow 01:32:06 73° 200° (SSW) 807 ? -24.7°
Maximum altitude 01:32:37 86° 124° (SE) 774 ? -24.7°
Drops below altitude 10° 01:37:43 10° 37° (NE) 2,218 ? -24.3°
Sets 01:39:59 0° 37° (NE) 3,097 ? -24.1°
